Lapse_Rate
6.5 6.9 7.0 6.9 6.7 6.5 6.2 5.8 5.7 5.8 5.8 5.8 6.4 6.6 6.5 6.3 5.9 5.9 6.1 6.1 5.9 6.0 5.8 5.5 5.2 5.5 5.5 5.6 5.6 5.6 5.4 5.3 5.4 5.7 5.5 5.4 5.2 4.9 4.5 4.2 4.2 4.2 4.3
7.0 6.8 7.0 6.7 6.6 6.3 6.0 5.8 5.6 5.7 5.7 6.1 6.1 6.3 6.6 6.8 6.4 6.0 5.8 5.7 5.6 5.5 5.8 5.8 6.0 6.0 6.0 6.0 5.9 5.8 5.7 5.6 5.5 5.5 5.3 5.5 5.5 5.1 4.6 4.4 4.4 4.3 4.3
6.6 6.5 6.5 6.5 6.4 6.4 6.1 5.8 5.6 5.4 5.5 5.7 5.8 6.1 6.3 6.1 6.4 6.5 6.2 6.0 5.5 5.5 5.6 5.8 6.0 6.3 6.2 6.0 6.0 5.9 6.2 6.0 5.4 5.7 5.7 5.7 5.9 5.9 5.4 4.7 4.4 4.3 4.5
5.8 6.0 6.0 6.0 6.0 5.8 5.9 5.8 5.5 5.9 6.3 6.3 6.0 5.6 5.7 5.8 6.4 6.3 6.1 6.0 6.0 5.5 5.8 5.9 6.2 6.6 6.6 6.4 6.2 6.0 6.2 5.8 5.6 5.6 5.8 6.1 6.0 6.0 5.8 5.2 5.0 4.8 4.6
5.1 5.2 5.4 5.5 5.6 5.6 5.6 5.5 5.7 5.9 5.8 5.9 6.0 6.0 6.0 5.9 5.6 5.9 6.2 6.2 6.1 6.1 6.1 6.0 6.1 6.4 6.3 6.4 6.4 6.5 6.7 6.2 5.9 5.4 5.7 6.2 6.2 6.2 6.2 5.9 5.0 4.9 4.9
4.9 4.7 4.6 4.5 4.4 4.7 5.2 5.6 5.6 5.5 5.7 5.8 5.5 5.2 5.2 6.1 5.9 5.7 5.8 6.0 6.1 6.3 6.2 6.4 6.1 5.9 6.3 6.7 6.9 6.7 6.8 6.6 6.3 6.3 5.3 5.7 6.2 6.5 6.1 5.9 5.8 5.5 5.3
4.9 4.7 4.5 4.5 4.5 4.3 3.9 3.9 4.4 5.2 5.5 5.6 5.5 5.4 5.2 5.2 5.5 5.7 5.4 5.8 5.5 5.7 6.1 6.1 6.0 6.1 6.0 6.0 6.5 6.8 6.9 6.6 6.4 6.3 5.8 5.5 5.9 6.2 6.0 5.4 5.2 5.3 5.3
5.3 5.1 4.9 4.8 4.7 4.6 4.3 4.0 3.8 3.6 3.9 4.6 5.2 5.3 5.0 5.1 4.8 5.1 5.4 5.4 5.6 5.5 5.4 5.7 5.8 6.1 6.3 6.0 5.9 5.9 5.7 6.0 6.7 6.6 6.4 6.1 6.0 6.0 6.0 5.2 4.4 4.3 4.6
5.7 5.6 5.6 5.3 5.2 5.0 4.8 4.6 4.3 3.9 3.6 3.5 3.6 4.3 5.1 5.4 5.0 4.8 4.8 5.1 5.4 5.7 5.4 5.2 5.5 5.4 5.7 5.9 5.9 5.9 5.9 5.7 5.8 5.9 6.0 5.9 5.7 5.9 5.6 5.3 4.9 4.6 4.7
5.9 5.8 5.7 5.6 5.5 5.3 5.2 5.0 4.9 4.8 4.4 4.1 3.8 3.6 3.7 4.4 5.4 5.1 4.8 4.4 4.8 5.5 6.0 6.2 5.9 5.8 6.1 6.1 6.2 6.6 6.3 6.3 5.7 5.4 5.7 5.7 5.4 5.3 4.8 5.2 4.4 3.7 3.6
5.7 5.4 5.3 5.2 5.1 5.0 4.9 4.9 4.7 4.7 4.7 4.6 4.4 4.1 3.9 3.8 4.0 4.8 4.9 4.4 4.2 4.4 5.2 5.9 6.2 6.0 5.8 6.1 6.5 6.8 6.4 5.7 5.6 5.8 5.7 5.5 5.2 4.5 4.3 4.4 4.4 3.6 3.4
5.5 5.3 5.1 4.9 4.8 4.8 4.7 4.6 4.4 4.2 4.1 4.2 4.2 4.4 4.5 4.4 4.2 4.3 5.0 4.9 4.8 4.1 4.5 5.3 5.7 6.0 5.9 5.8 5.8 6.1 6.2 5.6 5.6 5.7 5.9 5.9 5.6 5.0 4.7 4.3 3.9 3.8 3.3
5.8 5.5 5.4 5.2 5.2 5.2 5.1 5.0 4.8 4.5 4.2 4.2 4.5 4.8 4.9 4.6 4.4 4.7 4.7 5.1 5.3 4.7 4.3 5.0 5.2 5.2 5.6 5.5 5.5 5.7 5.7 5.6 6.2 6.3 5.8 5.7 5.6 5.3 4.7 4.4 3.5 3.3 3.1
6.2 5.9 5.6 5.3 5.2 4.9 4.5 4.3 4.3 4.2 4.0 3.8 4.0 4.3 4.9 5.2 5.1 4.7 4.5 4.7 5.3 5.4 5.0 4.9 5.2 5.4 5.4 5.6 5.4 5.6 5.7 5.7 6.2 6.1 6.0 5.5 5.3 5.4 5.2 4.5 3.5 3.0 2.7
6.0 5.6 5.4 5.2 5.0 5.0 4.5 3.9 3.5 3.3 3.2 3.3 3.6 3.9 4.5 5.4 5.7 5.5 4.8 4.4 4.4 5.0 4.9 5.0 5.0 5.4 5.5 5.7 5.5 5.4 5.5 5.6 5.9 6.0 5.9 5.6 5.4 5.2 4.6 4.4 3.4 2.7 2.6
5.8 5.3 5.0 4.9 5.0 5.1 4.9 4.7 3.8 3.0 2.4 2.3 2.5 2.8 4.0 5.1 5.6 5.7 5.5 5.0 4.6 4.9 4.5 4.6 5.1 5.5 6.0 5.8 5.5 5.2 4.2 4.7 5.5 5.7 5.4 5.4 5.2 4.8 4.5 4.1 3.1 2.8 2.5
5.3 4.9 4.5 4.7 5.0 5.2 5.1 4.7 4.5 3.9 2.9 2.3 2.0 2.4 3.1 4.3 5.3 5.7 5.9 5.7 5.4 5.0 4.7 4.6 4.8 5.2 5.7 5.6 5.6 5.4 4.6 4.5 4.8 5.0 4.8 4.6 4.5 4.4 3.9 3.7 3.3 3.2 3.1
5.0 4.1 4.3 4.8 4.9 5.2 5.3 5.2 4.6 4.0 3.7 3.6 2.5 2.2 2.9 3.5 4.5 5.5 6.0 5.6 5.6 5.2 4.9 4.9 4.7 5.0 5.3 5.4 5.5 5.3 4.8 4.1 3.8 4.2 4.1 3.9 3.8 3.7 3.4 3.4 3.1 2.9 2.9
5.0 3.9 4.1 4.6 4.9 5.2 5.6 5.9 5.5 5.0 4.3 4.1 3.6 2.8 2.9 3.0 3.3 3.8 4.5 4.9 5.1 5.7 5.9 5.6 5.1 5.1 5.3 5.4 5.8 5.5 4.8 4.0 3.5 3.6 3.5 3.5 3.7 3.2 3.0 3.0 2.8 2.8 2.8
5.6 4.5 4.4 4.7 5.3 5.5 5.5 5.6 5.5 5.3 4.7 4.5 3.9 3.5 3.3 3.5 3.7 4.2 5.0 5.4 5.6 6.1 6.5 5.9 5.5 5.3 5.2 5.7 5.6 4.7 4.5 4.2 3.7 3.6 3.4 3.3 3.3 3.1 2.7 2.8 2.8 3.0 2.8
5.6 5.6 5.3 5.0 5.1 5.2 5.4 5.3 5.2 5.4 5.0 4.9 4.8 4.4 4.5 4.9 5.2 5.3 5.7 6.1 6.5 6.5 6.1 5.8 5.9 5.8 5.7 5.4 4.8 4.5 4.4 4.2 3.9 3.7 2.9 3.1 3.3 3.1 2.6 2.7 2.8 2.6 2.3
5.7 5.4 5.3 5.4 5.3 5.3 5.1 5.0 5.0 5.1 5.2 5.2 5.6 5.5 5.5 5.7 5.8 5.9 6.0 6.1 6.4 6.1 5.9 5.9 5.9 5.6 5.3 5.3 5.0 4.5 4.3 4.1 3.8 3.7 3.0 2.6 2.8 2.9 2.7 2.5 2.5 2.6 2.8
5.9 5.6 5.5 5.4 5.4 5.3 4.9 4.8 4.7 5.0 5.1 5.5 5.8 5.9 5.9 6.0 6.1 6.0 6.0 6.2 6.2 6.0 5.7 5.8 5.9 5.5 5.5 5.2 4.8 4.2 4.1 3.8 3.6 3.2 3.1 2.6 2.5 2.5 2.6 2.7 2.8 2.8 3.0
5.9 5.7 5.6 5.5 5.3 5.2 5.2 5.0 4.8 4.7 4.8 5.1 5.4 5.7 6.1 6.2 6.2 6.1 6.1 6.1 5.9 5.8 5.9 5.9 5.8 5.4 5.3 4.8 4.5 4.4 4.2 3.9 3.7 3.3 3.2 3.0 2.9 2.9 2.8 2.7 2.9 3.1 3.3
5.7 5.6 5.6 5.6 5.5 5.3 5.2 5.1 4.9 4.6 4.7 4.7 4.9 5.0 5.1 5.2 5.5 5.7 5.9 6.0 6.0 6.0 5.9 5.7 5.4 5.4 5.2 4.9 4.8 4.6 4.3 4.1 4.1 3.7 3.6 3.6 3.6 3.7 3.7 3.6 3.6 3.9 4.2
5.5 5.5 5.4 5.5 5.5 5.5 5.4 5.2 5.0 4.8 4.6 4.4 4.4 4.4 4.5 4.6 4.8 5.0 5.1 5.2 5.3 5.3 5.3 5.3 5.1 5.0 5.0 5.1 4.8 4.4 4.5 4.3 4.3 4.1 3.8 3.8 3.8 3.9 4.0 4.1 4.4 4.6 4.7
Wind_Speed
10 11 10 9 11 10 9 10 11 11 12 9 7 6 6 8 9 10 11 11 13 13 12 13 15 13 9 8 5 4 4 3 2 1 7 9 12 10 10 11 10 10 11
10 10 8 9 8 8 10 11 10 11 11 11 10 7 6 7 9 10 12 11 14 14 14 13 14 9 12 11 8 9 7 5 3 5 5 5 8 11 9 7 9 9 10
10 9 9 8 9 9 9 9 9 10 9 9 10 10 8 6 9 11 12 13 14 15 14 15 15 14 14 12 11 10 7 4 3 3 3 4 2 8 7 5 4 9 11
9 9 9 9 9 8 9 10 10 10 9 9 9 9 10 9 8 10 11 12 14 14 14 15 15 18 18 16 13 14 11 9 7 4 3 6 5 6 7 7 6 5 5
12 11 10 10 11 11 10 10 10 10 10 10 9 9 8 7 7 9 10 12 13 15 15 15 17 19 22 22 14 15 14 12 10 9 6 5 7 5 11 7 7 5 7
10 11 12 10 11 10 10 11 12 12 12 11 11 11 11 7 13 17 15 13 14 15 16 16 17 18 21 26 29 28 23 19 17 12 12 12 13 10 10 9 7 5 5
9 10 10 10 11 11 10 12 13 14 14 14 14 13 13 13 18 20 19 11 13 16 17 15 15 14 17 18 26 27 26 31 29 19 19 15 13 15 13 12 12 9 4
11 12 11 11 13 13 13 13 14 13 15 15 16 16 16 14 23 22 21 14 13 16 19 18 17 18 17 17 17 18 21 19 21 14 18 14 11 14 15 13 13 8 4
11 13 13 13 14 15 15 15 16 15 15 16 17 20 18 18 26 25 20 13 15 17 17 18 17 18 23 24 18 19 20 18 18 23 17 16 20 26 19 10 10 9 4
12 13 14 15 15 16 17 18 17 16 18 15 18 19 23 22 30 30 24 12 15 13 14 16 22 23 25 26 20 18 20 19 13 13 10 12 17 20 27 15 12 11 4
13 14 14 15 16 17 18 16 17 17 18 19 20 20 21 23 25 34 32 16 14 13 12 12 12 24 28 29 30 19 23 15 20 14 11 10 10 12 11 10 12 11 7
15 16 16 16 13 13 17 17 17 17 19 20 19 18 16 19 28 31 34 32 28 16 15 12 12 22 26 29 24 32 30 23 13 14 13 13 12 12 11 11 11 9 7
17 17 16 17 15 15 15 16 14 15 14 16 14 15 16 14 14 31 34 32 31 19 15 19 24 23 26 25 31 30 26 15 13 14 15 14 12 12 12 12 11 13 10
17 17 16 16 17 15 12 12 12 12 13 14 14 15 14 14 14 13 12 12 18 19 22 18 19 18 20 19 16 20 16 15 13 14 13 11 10 11 11 11 10 9 7
16 16 16 14 15 15 14 13 13 14 16 14 14 15 15 16 15 24 24 13 8 12 12 11 10 11 10 11 11 13 14 13 13 13 12 12 11 12 10 11 9 9 5
16 14 12 13 13 13 13 14 24 30 33 34 36 28 17 32 38 38 37 39 36 31 9 11 9 11 12 13 12 12 13 15 12 11 10 11 11 12 11 11 10 10 8
15 16 13 14 13 14 13 13 15 18 31 33 34 34 35 34 37 36 37 36 35 31 14 11 10 10 11 11 11 12 12 8 11 11 11 12 12 11 14 12 11 10 9
15 21 13 12 13 13 13 14 13 14 15 15 22 25 29 32 32 33 34 27 16 21 12 10 9 10 10 10 9 10 8 10 10 11 12 12 11 11 11 11 10 10 9
13 11 12 12 13 15 14 14 13 14 14 14 14 20 18 27 28 31 30 10 6 15 11 9 8 9 9 8 7 8 12 11 12 11 11 10 10 11 10 10 9 12 11
12 17 16 12 12 13 12 13 13 12 12 12 11 13 13 14 12 9 9 9 7 7 5 6 7 7 8 9 9 9 9 11 10 9 10 10 10 10 10 11 9 9 7
10 11 16 12 11 11 12 12 12 11 9 10 11 13 25 13 9 9 10 9 7 5 3 5 5 7 8 9 9 9 10 10 10 10 10 10 11 10 10 9 9 8 8
10 10 10 11 11 11 11 11 10 11 10 10 9 9 22 9 9 7 8 6 7 6 6 7 7 7 7 8 10 10 10 10 10 10 10 10 9 9 9 9 8 8 7
9 11 11 10 11 14 11 10 9 10 10 10 10 9 9 8 7 8 8 8 8 7 6 5 6 7 6 6 7 8 10 10 10 11 12 11 10 9 8 8 8 7 6
9 10 11 10 10 10 10 11 10 12 10 9 10 9 9 8 8 8 8 7 7 8 8 7 7 8 9 7 7 7 8 8 9 10 14 12 10 11 9 8 7 7 6
8 9 9 9 10 10 10 10 10 10 10 9 9 9 8 8 8 8 8 7 7 8 9 8 7 9 11 12 10 10 13 16 12 14 9 11 12 12 8 7 7 6 5
8 9 8 8 8 9 9 9 10 10 10 9 9 9 9 9 8 8 8 8 8 9 10 8 10 13 13 12 13 13 16 17 13 16 9 9 9 7 6 7 7 4 4
Wind_Direction
10 7 4 8 9 7 8 4 359 345 340 329 299 281 271 255 241 234 232 233 233 229 224 220 214 203 201 193 187 198 203 199 149 35 168 164 174 175 169 198 200 200 210
360 359 1 357 358 359 0 355 352 349 344 339 327 292 272 266 262 241 238 235 237 231 229 225 220 206 206 198 191 198 196 205 159 159 172 163 185 182 181 186 197 213 224
352 347 347 350 351 352 348 340 336 334 337 341 334 321 304 284 269 262 248 244 240 240 233 230 222 209 209 206 199 195 188 168 212 151 157 167 168 172 179 179 193 199 220
342 341 334 335 333 336 331 329 325 325 324 328 325 316 313 301 281 269 261 252 249 246 236 236 228 222 211 208 206 199 183 174 175 175 148 175 168 177 172 183 196 209 211
333 330 324 324 325 322 316 316 318 315 315 313 311 305 299 293 287 280 271 260 251 251 243 234 235 231 227 214 200 202 193 189 185 187 188 177 182 164 191 176 197 181 211
313 306 310 313 314 309 308 311 313 313 307 302 301 300 296 288 280 275 269 270 264 256 253 244 239 233 233 224 221 207 198 191 194 194 196 206 197 183 176 173 175 165 210
294 292 290 297 297 296 300 306 308 308 308 301 299 296 289 287 283 277 265 257 257 261 256 253 247 238 228 223 226 225 216 208 201 194 202 203 192 182 167 176 183 186 185
293 297 295 289 292 292 294 295 300 302 302 300 296 291 286 281 281 280 272 259 254 252 253 249 246 245 230 220 215 216 224 217 215 205 211 201 199 177 176 179 180 165 90
293 293 293 294 294 291 288 287 291 292 291 291 290 289 283 279 277 276 273 262 255 253 251 246 244 246 242 220 216 216 218 225 220 215 205 176 169 172 165 147 166 168 170
299 296 297 297 294 292 292 292 291 289 286 286 284 281 282 282 277 273 267 259 256 255 251 248 236 239 238 226 215 212 218 214 204 203 198 187 180 174 172 173 168 178 151
309 305 301 298 296 295 295 291 290 288 284 281 279 278 276 273 275 272 265 256 249 252 250 246 240 235 234 231 215 214 220 197 195 195 189 183 177 177 175 175 171 173 165
312 306 305 303 297 293 291 291 288 284 281 278 278 277 273 271 270 270 263 255 252 247 246 246 241 232 229 227 223 217 217 209 189 189 185 192 184 179 177 166 160 156 160
307 304 303 300 296 292 289 289 289 284 280 279 279 279 278 276 273 272 270 261 253 255 250 246 244 236 223 226 223 218 216 210 191 190 194 193 188 178 160 151 144 139 137
300 300 300 297 297 291 285 283 282 283 282 282 281 279 283 281 279 279 275 265 257 261 253 256 246 228 208 209 215 225 215 211 194 195 193 186 171 162 160 153 145 150 150
301 300 299 295 294 295 288 284 280 274 271 274 269 270 273 273 275 283 286 293 261 249 263 255 236 218 191 204 210 210 212 202 192 193 184 174 164 158 160 154 150 155 174
302 299 298 298 296 293 293 291 282 285 287 285 284 280 275 274 277 276 273 278 277 277 244 259 235 212 202 197 201 195 209 201 187 180 170 163 166 163 158 152 156 164 166
293 294 293 292 292 291 290 290 294 289 287 287 288 287 284 279 276 270 266 266 265 262 250 240 233 213 207 199 198 195 200 179 170 163 156 160 165 162 160 163 164 162 164
292 291 291 290 289 290 290 290 289 291 294 293 288 287 285 282 276 274 272 272 253 252 233 231 229 208 204 201 193 190 166 161 164 159 162 165 170 163 166 165 162 160 156
297 292 292 294 293 291 291 289 288 288 288 290 295 294 287 287 284 277 278 282 250 224 217 222 218 203 193 191 170 157 160 166 167 166 164 164 164 161 159 153 150 148 142
301 296 296 297 298 298 297 295 293 287 288 291 293 291 297 299 297 305 297 296 253 244 198 220 187 184 176 149 149 156 155 159 159 160 156 154 153 151 147 145 144 142 145
304 302 308 303 304 304 302 303 305 294 290 289 288 289 290 298 317 305 301 281 237 177 163 153 145 138 145 151 151 158 156 152 153 147 150 149 147 144 142 137 140 143 149
312 309 312 311 310 313 316 312 321 329 323 313 317 329 338 339 341 343 351 4 53 86 114 136 146 150 149 147 149 148 149 145 142 141 140 139 135 131 132 137 140 141 145
315 320 320 320 322 324 322 326 331 335 336 338 339 340 345 350 353 358 5 10 23 34 44 65 93 97 95 106 123 138 143 147 147 143 139 138 133 132 133 137 142 144 155
329 327 328 328 330 331 333 334 336 341 344 349 348 349 353 357 3 10 17 24 34 41 46 54 65 84 94 97 104 114 123 129 131 136 135 134 133 133 136 140 142 148 154
334 336 335 333 334 336 336 341 343 346 351 356 358 358 359 7 15 19 22 30 41 52 57 62 68 74 77 88 94 108 126 122 122 124 122 123 128 132 132 133 141 150 160
336 339 339 338 340 342 344 346 349 353 357 2 7 9 10 16 21 25 29 38 48 53 60 60 68 76 80 80 90 104 106 104 99 102 108 116 122 122 128 134 145 153 171